Zurück zum Katalog

STARLINK-5464

AktivKommunikationVLEO
NORAD 54758·PAYLOAD·🇺🇸 United States

Gestartet Dec 17, 2022 von Cape Canaveral Space Force Station

Loading…

Nächste Überflüge (nächste 24 Stunden)

TLE

AktuellSource: CelesTrak SupGP

Epoche: Sep 14, 2026, 21:31 UTC

1 54758C 22175A   26257.89701389  .00022147  00000+0  71228-3 0  2578
2 54758  53.1580 258.8740 0001330  83.1866 121.4070 15.31686838    11

Verfolge STARLINK-5464 in Echtzeit mit AllMySat

Download on the App Store